Wind_Speed
10 8 6 3 2 5 12 10 9 6 5 3 3 5 6 7 4 5 17 11 7 2 3 6 9 11 13 14 13 12 12 13 12 12 11 11 9 9 8 8 8 9 9 10 10 10 9 10 9
11 8 7 3 0 8 12 12 9 12 11 4 5 5 8 5 4 5 9 9 6 3 6 10 10 12 13 16 16 15 14 14 13 13 13 12 11 10 9 9 9 9 9 9 9 10 10 9 8
11 10 6 2 2 3 2 6 7 5 14 13 7 9 7 7 3 2 1 2 6 9 11 16 20 19 15 17 19 17 16 15 14 14 14 14 12 11 10 10 10 11 10 11 10 10 9 9 7
11 10 6 7 5 2 10 12 11 12 10 13 11 11 7 5 3 3 6 9 13 15 18 19 19 20 20 17 21 19 18 17 15 15 15 15 14 13 12 11 12 12 13 12 11 11 11 11 9
10 10 9 7 5 4 6 8 4 16 14 11 11 8 7 6 6 5 8 12 17 18 17 17 17 13 16 16 20 21 20 18 18 17 17 16 16 15 13 13 13 13 14 15 14 13 12 11 9
10 11 8 12 10 8 9 10 8 12 8 7 7 8 10 7 5 8 10 13 18 18 17 18 20 16 14 12 19 22 22 21 20 19 19 18 18 17 16 15 14 15 15 16 15 14 13 13 12
9 13 12 12 11 9 7 9 12 14 13 12 11 11 10 9 11 13 13 16 21 23 21 22 25 24 20 18 17 22 23 24 23 22 22 21 21 20 18 17 17 16 16 16 16 16 15 15 13
10 12 11 13 10 9 8 7 11 11 7 9 11 8 11 13 14 15 16 20 26 28 26 28 29 30 31 26 22 24 26 25 26 25 25 24 24 23 21 20 19 18 17 17 17 17 17 16 15
11 11 9 10 11 12 12 6 5 6 8 8 11 11 16 14 13 13 14 22 26 30 30 28 27 28 25 24 27 28 28 27 28 28 27 27 26 25 24 22 21 20 19 18 17 17 18 17 16
12 11 6 7 12 11 13 10 9 7 8 10 16 23 21 21 21 21 19 22 26 30 31 30 29 29 31 29 27 33 33 32 30 30 29 29 28 27 26 25 24 23 22 20 19 19 19 19 18
13 12 5 7 12 15 16 17 13 14 17 20 28 30 29 27 27 28 30 31 33 34 33 34 34 33 34 36 33 30 36 35 36 33 32 31 31 30 29 29 27 26 25 23 20 20 19 20 20
14 11 14 13 14 15 17 20 20 18 22 25 25 27 28 27 26 25 24 23 25 30 36 38 38 35 38 39 39 33 32 35 37 38 36 34 32 33 33 32 31 28 27 26 23 22 22 22 23
17 15 14 16 16 17 19 19 17 18 22 22 20 19 21 24 24 25 23 24 25 23 23 26 30 30 35 36 38 39 36 35 38 38 39 38 37 35 36 34 33 32 30 28 26 25 25 24 24
15 15 16 17 17 21 22 21 19 22 22 21 20 21 22 23 25 25 27 29 27 26 27 27 28 29 31 40 41 42 43 41 42 42 43 43 40 39 39 38 37 34 34 31 30 28 27 26 26
13 16 16 15 20 23 23 22 19 21 24 21 21 22 24 25 28 31 32 31 28 28 28 30 34 36 36 35 41 51 48 48 47 47 46 48 45 42 43 44 42 38 36 34 34 32 31 30 30
17 17 17 9 8 10 16 12 17 20 18 20 22 23 24 27 32 36 37 30 31 31 32 35 39 44 46 44 41 41 54 58 53 51 51 47 51 47 46 45 44 43 41 38 37 36 35 33 31
16 14 10 9 7 7 10 12 19 19 22 24 23 25 28 31 34 35 32 31 33 36 38 41 44 50 48 43 45 41 38 49 61 61 56 55 51 50 51 49 48 44 44 43 40 40 38 36 33
9 14 11 8 9 10 10 16 20 21 24 27 29 30 31 33 32 33 34 35 38 40 43 47 52 56 50 47 45 47 46 45 45 54 66 62 58 55 51 53 50 52 48 47 45 43 41 38 34
18 16 18 15 13 16 15 20 25 26 28 30 31 31 30 33 33 34 36 38 40 43 48 52 58 60 54 49 49 51 51 53 54 54 53 68 67 64 61 54 59 57 63 47 48 46 44 41 37
20 21 21 18 17 19 23 27 29 32 32 31 31 30 32 33 32 36 37 39 43 47 51 55 59 56 54 54 53 54 55 56 56 57 58 57 67 71 69 63 53 50 68 53 45 48 48 44 42
24 25 22 19 19 22 23 29 29 31 33 35 33 34 33 32 34 36 37 41 45 50 54 56 56 54 53 52 51 52 53 52 47 44 51 57 58 67 73 69 68 63 52 53 43 45 51 48 45
25 21 20 20 21 18 21 15 26 26 31 29 28 31 32 34 34 36 38 40 44 48 50 50 50 50 49 48 48 47 45 43 44 42 40 46 56 57 66 70 68 60 60 53 60 46 48 51 47
34 25 24 22 23 20 18 10 23 26 27 24 28 28 26 30 31 32 37 40 42 44 46 45 44 43 43 46 45 43 41 42 44 44 42 45 44 56 56 63 69 66 65 59 55 54 52 51 49
10 24 22 20 17 12 21 19 26 22 18 18 23 25 25 26 28 30 34 37 40 40 40 41 40 37 39 36 35 36 38 42 45 46 48 50 46 44 56 57 62 65 69 50 54 56 58 55 54
23 19 5 4 3 8 10 18 27 10 11 17 19 21 22 23 24 28 32 35 36 36 38 38 36 36 34 28 27 31 37 39 42 48 48 44 38 36 38 50 48 63 69 67 69 55 48 56 50
32 23 13 6 5 3 10 8 11 13 13 16 15 17 17 20 24 29 30 30 31 35 37 37 36 37 35 32 28 27 31 33 31 31 32 31 33 26 28 37 41 52 61 67 57 41 61 41 45
26 33 30 27 15 5 9 14 16 20 21 11 10 10 15 21 26 25 23 26 29 32 33 35 34 36 38 38 32 22 15 15 15 16 23 22 17 16 11 22 27 36 52 63 55 38 38 48 54
24 20 15 16 3 4 4 8 14 8 6 6 9 13 17 22 22 19 18 22 25 27 28 30 33 35 39 38 40 33 28 18 13 11 14 10 13 14 21 16 20 27 36 48 42 40 36 30 33
20 22 13 6 15 4 1 6 5 9 13 13 17 14 16 16 15 14 15 18 19 25 29 31 32 33 37 37 38 41 34 18 16 15 13 11 18 14 12 12 12 19 27 27 42 27 37 32 47
15 11 24 13 7 11 9 14 22 22 20 19 15 13 14 12 11 9 12 13 15 18 21 27 34 35 36 37 36 36 30 23 11 16 24 20 18 25 14 16 15 21 17 26 26 8 21 34 38
Wind_Direction
286 288 297 314 26 68 83 90 54 206 85 136 199 195 184 157 131 147 144 144 151 163 312 299 278 277 266 258 268 279 288 297 300 297 289 283 273 265 264 246 226 217 217 217 217 217 220 224 220
282 279 286 299 222 120 102 95 68 121 123 172 224 155 183 193 99 128 150 168 185 240 285 294 298 281 267 252 254 264 274 283 290 288 283 281 273 269 268 254 237 223 218 220 225 227 222 222 225
273 265 264 274 226 162 200 284 324 177 161 159 206 182 183 164 173 233 139 276 274 278 280 280 286 284 278 255 245 253 264 271 277 277 276 274 268 264 262 257 245 232 225 223 224 230 236 232 228
268 253 232 228 224 21 316 290 324 168 178 183 184 180 170 173 205 324 325 300 297 298 301 300 286 282 267 265 243 244 254 262 270 270 268 265 266 264 258 258 248 240 233 231 231 233 238 241 241
258 247 217 201 182 68 354 331 1 169 174 187 198 183 195 166 195 245 260 270 277 286 292 302 293 287 270 267 244 238 245 253 259 260 259 260 264 265 263 261 254 248 242 238 235 236 237 230 232
251 242 219 210 177 112 102 113 155 182 169 173 226 226 184 185 226 242 247 253 264 275 285 292 298 286 264 256 242 232 242 248 252 253 254 258 262 263 262 261 258 254 249 244 238 239 237 229 231
247 246 227 206 177 153 127 127 138 142 152 153 162 213 193 187 230 243 257 268 279 283 285 282 287 288 285 264 237 235 240 248 253 259 261 260 259 259 258 259 258 255 253 249 243 240 239 239 239
235 240 241 212 203 183 176 156 149 166 154 174 187 206 188 217 242 263 273 281 287 290 289 290 291 297 293 279 256 232 238 247 253 255 258 258 258 258 258 258 258 255 254 253 246 241 240 241 237
241 235 254 220 208 192 202 208 178 177 194 217 225 247 238 233 241 250 261 287 292 294 294 292 290 288 289 281 269 246 230 239 246 255 260 264 263 261 262 262 260 256 252 253 251 243 241 242 244
235 247 282 251 230 237 240 237 236 220 211 239 267 262 265 266 266 268 260 267 279 284 286 284 280 278 280 281 277 273 242 230 237 246 254 259 264 265 265 263 260 256 253 250 248 245 242 241 243
247 247 251 260 262 265 266 262 265 265 267 257 250 264 270 275 279 277 276 273 268 270 274 279 282 278 275 279 278 267 260 239 233 234 242 253 259 261 262 262 260 259 255 252 250 247 240 241 241
254 256 246 247 246 260 273 274 282 289 273 267 267 268 270 273 278 280 281 286 286 276 273 275 277 272 274 274 273 266 259 255 241 239 236 242 249 257 260 262 262 259 255 252 249 245 238 236 239
257 256 259 265 267 269 272 280 282 288 278 277 274 274 279 285 292 295 299 303 303 292 280 274 269 269 262 263 265 268 259 250 250 248 245 242 242 247 256 258 259 259 257 252 248 243 242 236 238
264 274 271 263 261 268 266 267 266 270 264 271 273 277 282 286 291 294 304 314 308 304 300 293 286 279 270 257 258 260 263 260 251 245 247 248 243 243 249 252 254 254 255 251 247 243 242 240 238
270 271 265 276 266 258 250 258 261 243 259 267 269 278 283 290 298 304 309 311 308 309 310 310 310 306 297 283 265 256 255 258 257 250 242 242 242 240 241 247 248 250 251 250 247 242 238 236 234
278 279 284 230 236 244 228 219 217 233 247 259 270 278 287 294 298 300 304 299 306 310 309 308 310 312 307 298 287 268 259 254 255 254 250 244 240 241 241 241 247 248 247 246 245 242 240 238 237
272 259 248 245 224 212 207 224 230 240 245 255 266 275 282 286 291 296 297 299 300 302 306 308 309 311 305 296 291 282 273 263 255 254 253 249 243 235 237 236 240 246 246 241 241 242 239 239 237
271 240 243 225 222 219 249 253 246 243 252 258 264 271 280 287 291 294 295 295 295 298 302 306 308 309 304 298 290 283 278 272 265 258 253 253 249 240 238 235 238 237 248 241 238 238 237 237 237
254 256 254 238 238 255 262 258 252 247 250 253 261 271 279 282 284 286 289 290 290 294 299 301 306 308 304 297 293 287 281 276 270 263 257 249 249 250 239 235 234 235 231 241 234 235 236 234 232
249 264 263 266 257 273 274 270 257 252 255 259 264 272 281 281 283 287 287 287 290 295 301 303 303 303 301 297 296 292 284 277 272 264 257 249 245 245 249 240 235 255 218 221 237 231 232 231 228
248 253 260 268 268 271 268 261 256 259 264 268 270 277 279 280 283 285 288 291 296 302 302 303 305 304 301 298 295 288 281 277 275 270 260 247 245 244 243 246 240 246 236 231 228 232 231 230 229
264 252 258 263 274 255 254 273 268 267 268 269 274 274 272 277 283 288 291 295 300 299 304 308 306 304 301 296 291 287 281 269 269 271 268 256 246 245 245 240 245 246 242 233 223 226 231 230 229
260 263 265 269 265 254 238 263 273 262 263 270 270 266 269 280 287 292 300 302 307 312 313 313 313 309 303 298 290 283 275 269 269 267 267 266 257 247 245 243 240 244 248 233 220 233 226 226 228
285 255 248 254 245 251 244 222 273 260 267 264 264 268 277 283 293 302 308 316 317 318 322 324 321 313 305 297 295 290 283 278 273 269 269 266 267 254 246 243 240 241 239 234 241 235 221 227 222
261 226 218 254 214 242 230 218 241 254 259 279 274 274 280 291 302 311 320 321 321 328 332 331 323 320 319 315 311 297 288 283 276 265 262 268 274 262 251 243 242 237 242 240 252 229 239 222 226
238 231 205 224 218 255 208 240 245 253 260 261 265 272 284 303 314 322 325 327 335 339 337 337 332 335 335 339 334 323 311 300 295 267 262 271 271 260 250 246 240 235 233 236 238 249 249 238 236
230 226 239 240 261 266 243 258 265 273 274 265 257 273 303 315 321 324 332 341 349 344 346 347 352 354 353 352 348 329 311 325 289 274 278 266 244 247 236 247 244 247 236 232 240 260 253 255 246
232 241 214 220 221 227 247 256 251 282 280 260 280 301 308 314 317 323 344 357 358 358 3 6 8 12 9 5 355 358 354 327 287 284 297 255 247 227 217 226 246 235 232 233 245 245 250 261 260
211 221 213 232 236 186 239 250 245 294 285 283 296 294 303 306 305 322 359 8 7 23 23 23 21 26 25 18 7 15 0 338 299 293 280 209 216 185 214 232 218 216 234 239 231 227 244 231 240
236 251 229 233 218 228 247 264 275 281 284 285 276 282 286 286 294 334 12 7 11 20 18 26 31 34 37 30 28 33 24 360 328 306 306 225 205 176 171 212 211 213 215 228 221 213 241 228 240
Height
3149 3149 3149 3150 3154 3151 3149 3151 3150 3151 3152 3150 3149 3150 3151 3149 3150 3154 3154 3154 3155 3156 3158 3158 3158 3159 3158 3158 3158 3158 3157 3156 3154 3153 3152 3152 3151 3150 3149 3148 3148 3148 3148 3149 3149 3148 3149 3149 3149
3148 3148 3150 3150 3152 3150 3150 3149 3148 3149 3153 3150 3149 3149 3149 3148 3148 3150 3154 3155 3156 3156 3156 3156 3156 3156 3156 3156 3157 3156 3156 3155 3154 3153 3152 3151 3151 3150 3149 3148 3147 3147 3147 3147 3148 3148 3148 3148 3148
3145 3147 3150 3150 3149 3149 3149 3147 3148 3149 3149 3149 3148 3148 3148 3149 3150 3151 3153 3154 3154 3156 3156 3155 3154 3154 3153 3154 3154 3155 3155 3154 3153 3152 3151 3151 3151 3150 3148 3147 3147 3146 3146 3147 3147 3147 3147 3147 3148
3144 3146 3149 3149 3148 3149 3147 3145 3146 3147 3145 3148 3147 3147 3147 3148 3150 3151 3151 3152 3152 3152 3152 3153 3152 3151 3151 3151 3151 3152 3153 3153 3152 3152 3151 3150 3150 3150 3149 3148 3147 3147 3147 3147 3147 3147 3147 3147 3147
3142 3143 3145 3147 3147 3147 3147 3145 3145 3144 3146 3146 3147 3146 3147 3146 3146 3148 3150 3151 3150 3149 3149 3148 3146 3146 3147 3147 3148 3149 3150 3151 3151 3150 3151 3150 3150 3149 3148 3148 3147 3147 3146 3146 3146 3146 3146 3146 3146
3141 3142 3142 3143 3145 3146 3147 3146 3144 3144 3147 3147 3146 3146 3146 3145 3145 3147 3146 3146 3146 3145 3147 3147 3144 3142 3142 3142 3144 3145 3147 3148 3148 3148 3148 3148 3148 3148 3147 3147 3146 3146 3145 3145 3145 3145 3144 3144 3144
3139 3140 3139 3140 3142 3144 3146 3147 3146 3144 3145 3145 3145 3145 3145 3145 3143 3143 3145 3144 3144 3144 3145 3144 3141 3139 3139 3138 3139 3142 3144 3145 3146 3146 3146 3146 3145 3145 3145 3145 3145 3144 3144 3143 3143 3143 3143 3143 3144
3136 3140 3140 3139 3139 3142 3143 3145 3146 3146 3145 3144 3144 3144 3144 3140 3141 3140 3140 3141 3140 3140 3142 3141 3139 3139 3138 3136 3136 3136 3140 3142 3143 3143 3143 3142 3142 3142 3142 3143 3143 3143 3142 3142 3142 3141 3141 3141 3141
3135 3137 3139 3141 3139 3139 3140 3142 3144 3145 3144 3143 3142 3141 3139 3141 3139 3138 3138 3137 3137 3136 3136 3136 3136 3135 3135 3134 3132 3131 3132 3136 3138 3140 3140 3139 3140 3140 3140 3140 3140 3140 3140 3140 3140 3139 3139 3139 3139
3134 3136 3138 3141 3139 3138 3138 3140 3142 3144 3143 3142 3138 3133 3135 3136 3137 3137 3137 3136 3135 3133 3130 3130 3132 3131 3130 3130 3130 3128 3127 3127 3130 3133 3135 3135 3136 3136 3136 3137 3136 3137 3137 3137 3137 3137 3137 3137 3136
3131 3133 3135 3138 3139 3138 3136 3136 3139 3139 3138 3138 3133 3131 3132 3132 3132 3132 3132 3131 3131 3130 3128 3126 3125 3126 3126 3124 3125 3124 3123 3123 3122 3123 3126 3129 3131 3131 3132 3132 3132 3133 3133 3133 3133 3134 3133 3134 3133
3130 3131 3131 3134 3134 3134 3134 3134 3134 3133 3130 3129 3131 3129 3128 3128 3127 3128 3126 3124 3124 3124 3122 3121 3119 3119 3118 3118 3117 3118 3118 3119 3118 3118 3118 3121 3123 3125 3126 3127 3128 3128 3129 3130 3130 3130 3130 3130 3131
3127 3128 3128 3129 3131 3132 3132 3132 3131 3129 3125 3125 3126 3126 3125 3123 3122 3121 3120 3119 3118 3116 3115 3113 3112 3112 3112 3111 3110 3109 3110 3112 3112 3113 3113 3113 3113 3117 3119 3121 3122 3123 3124 3125 3125 3125 3126 3126 3127
3125 3125 3125 3125 3126 3126 3127 3128 3128 3122 3122 3122 3122 3122 3122 3121 3118 3116 3115 3114 3112 3110 3108 3108 3107 3106 3105 3104 3102 3101 3100 3101 3102 3105 3105 3106 3107 3108 3110 3112 3114 3116 3118 3120 3120 3120 3121 3122 3122
3122 3121 3121 3121 3120 3119 3121 3123 3123 3120 3118 3119 3119 3118 3117 3116 3114 3111 3109 3108 3106 3104 3103 3101 3099 3098 3096 3096 3094 3092 3091 3089 3090 3092 3095 3097 3097 3099 3100 3102 3105 3108 3111 3114 3115 3115 3114 3114 3115
3118 3119 3118 3116 3115 3115 3116 3118 3116 3115 3116 3116 3115 3113 3112 3111 3109 3107 3106 3103 3100 3098 3096 3095 3091 3088 3086 3084 3082 3082 3080 3079 3079 3079 3081 3084 3086 3088 3090 3091 3094 3099 3102 3106 3109 3110 3111 3110 3110
3115 3114 3115 3115 3114 3113 3113 3112 3111 3111 3111 3111 3110 3109 3109 3107 3106 3104 3101 3099 3095 3092 3089 3087 3084 3081 3076 3071 3068 3069 3069 3067 3068 3068 3069 3072 3073 3076 3078 3080 3084 3089 3093 3095 3100 3103 3105 3106 3106
3111 3112 3111 3112 3113 3110 3110 3107 3107 3107 3107 3106 3105 3105 3104 3102 3099 3097 3095 3092 3089 3085 3081 3076 3073 3070 3066 3062 3058 3055 3055 3056 3054 3055 3057 3060 3062 3063 3063 3067 3071 3077 3081 3084 3089 3094 3098 3100 3103
3109 3108 3108 3109 3108 3107 3106 3104 3103 3102 3102 3101 3100 3100 3099 3097 3095 3093 3091 3087 3084 3079 3075 3069 3063 3057 3052 3050 3047 3043 3040 3039 3040 3040 3041 3043 3047 3050 3048 3051 3058 3060 3064 3070 3077 3084 3090 3093 3096
3106 3104 3104 3105 3105 3104 3101 3097 3096 3096 3096 3095 3095 3095 3093 3091 3089 3087 3085 3082 3079 3074 3070 3063 3056 3049 3041 3035 3031 3027 3023 3021 3021 3021 3023 3027 3029 3033 3036 3040 3043 3035 3042 3053 3066 3073 3079 3085 3087
3100 3101 3102 3103 3102 3100 3097 3091 3091 3091 3090 3089 3089 3089 3087 3085 3083 3082 3079 3076 3072 3067 3060 3052 3044 3036 3029 3022 3017 3013 3009 3005 3004 3005 3005 3009 3012 3016 3019 3029 3032 3034 3026 3027 3052 3064 3068 3074 3079
3092 3098 3099 3100 3099 3096 3094 3084 3082 3082 3081 3082 3083 3083 3082 3080 3078 3076 3075 3073 3067 3062 3053 3043 3035 3026 3018 3012 3005 2999 2994 2994 2993 2992 2992 2995 2999 3002 3004 3012 3020 3026 3031 3033 3044 3049 3057 3063 3068
3087 3094 3094 3094 3093 3091 3089 3090 3072 3074 3074 3077 3077 3077 3076 3075 3073 3072 3068 3064 3058 3049 3041 3033 3024 3015 3007 3000 2994 2989 2986 2984 2982 2981 2982 2982 2984 2988 2992 2997 3005 3014 3018 3020 3030 3037 3043 3047 3055
3086 3088 3091 3090 3089 3085 3082 3086 3065 3067 3069 3069 3070 3071 3072 3072 3070 3066 3062 3056 3048 3041 3032 3022 3014 3007 3000 2992 2984 2978 2975 2973 2972 2970 2970 2970 2970 2973 2977 2983 2991 3000 3007 3009 3018 3022 3021 3037 3039
3082 3084 3085 3087 3086 3078 3075 3077 3066 3065 3066 3066 3066 3067 3068 3068 3065 3061 3056 3049 3042 3033 3025 3017 3010 3002 2992 2985 2979 2973 2966 2961 2958 2957 2956 2957 2958 2960 2963 2971 2980 2987 2995 3002 3004 3010 3002 3006 3031
3073 3078 3077 3079 3077 3074 3074 3067 3063 3064 3062 3063 3062 3063 3064 3063 3060 3054 3049 3043 3036 3029 3022 3014 3004 2995 2987 2978 2970 2962 2956 2948 2945 2946 2946 2948 2950 2952 2955 2959 2971 2980 2988 2996 3005 3002 3009 3007 3018
3069 3068 3074 3074 3071 3071 3069 3063 3061 3060 3059 3059 3060 3060 3060 3058 3054 3050 3045 3039 3033 3029 3019 3011 3001 2991 2981 2970 2967 2962 2953 2945 2943 2942 2944 2944 2942 2947 2953 2954 2962 2970 2979 2986 2999 3000 3002 3005 3010
3063 3067 3068 3069 3068 3068 3063 3060 3057 3056 3056 3057 3057 3057 3056 3054 3051 3048 3043 3038 3034 3028 3020 3011 3001 2991 2980 2971 2964 2949 2943 2943 2942 2941 2939 2939 2941 2943 2946 2950 2957 2964 2971 2977 2988 2987 2990 2993 2996
3062 3061 3062 3063 3062 3062 3065 3057 3055 3056 3054 3054 3054 3053 3053 3051 3049 3047 3041 3037 3035 3028 3022 3014 3006 2995 2985 2977 2966 2949 2945 2941 2941 2939 2938 2938 2939 2939 2945 2949 2954 2960 2967 2971 2978 2981 2985 2990 2994
3058 3057 3057 3059 3058 3056 3055 3051 3053 3052 3051 3050 3050 3050 3050 3049 3047 3044 3039 3038 3035 3030 3025 3019 3011 3001 2992 2984 2975 2962 2955 2946 2943 2943 2938 2935 2940 2939 2947 2949 2952 2960 2965 2969 2979 2980 2985 2987 2987